Wind_Speed
5 5 6 6 6 6 6 6 6 7 7 7 8 9 9 9 9 9 10 10 11 11 11 12 13 12 12 12 12 11 12 12 12 13 13 13 13 14 14 14 15 14 14
4 5 5 6 5 5 5 5 6 6 6 7 8 9 9 9 8 8 8 9 10 10 10 11 11 12 12 12 11 12 12 13 13 13 13 14 14 14 14 14 14 15 15
4 5 5 5 6 6 5 5 5 5 6 7 7 8 8 8 8 9 8 9 9 9 10 10 10 11 11 11 11 11 12 12 13 13 13 14 14 15 15 15 15 15 16
4 4 5 5 5 5 5 5 5 5 5 5 6 7 7 7 7 7 7 6 7 7 8 9 9 10 11 10 10 11 12 12 12 13 13 13 14 15 15 16 16 16 17
4 4 4 4 5 5 5 5 5 5 4 5 6 6 6 6 7 7 7 7 6 7 7 7 7 8 9 9 10 10 11 12 12 13 13 13 13 13 14 15 16 16 16
4 4 4 4 5 4 4 5 5 5 5 5 5 5 5 6 6 6 6 7 7 7 7 8 8 8 8 9 9 10 10 11 11 12 12 12 12 13 14 15 16 16 17
4 4 4 4 4 4 4 4 4 4 4 5 5 4 5 5 5 5 5 6 6 7 7 7 7 7 7 7 8 8 9 10 10 10 11 11 12 13 14 14 15 16 16
4 4 3 3 3 4 4 4 5 4 5 5 5 4 4 4 4 5 5 5 5 5 5 6 6 6 7 7 8 8 9 9 10 10 11 11 12 13 13 14 14 15 16
4 4 3 3 3 4 4 4 5 5 4 5 5 5 5 4 4 4 5 5 4 4 4 5 5 6 6 7 7 8 8 9 10 11 11 11 12 12 12 13 14 15 16
4 4 4 4 4 4 4 4 5 5 4 4 5 5 5 4 4 4 5 4 4 4 4 5 6 6 7 7 7 8 8 9 10 10 10 11 12 12 13 14 14 15 16
4 4 4 4 4 4 4 4 5 5 5 5 5 5 4 5 5 4 5 5 5 5 5 6 6 7 8 8 8 8 8 9 9 9 10 11 12 12 13 14 14 15 16
5 5 5 4 5 5 4 4 5 5 6 5 4 4 4 5 4 5 5 5 5 6 7 8 8 8 8 8 8 8 8 8 8 9 9 10 12 13 14 15 15 15 16
5 5 6 6 6 6 5 5 5 5 6 6 5 4 4 5 5 6 6 6 6 7 7 8 8 8 7 8 8 8 8 9 9 9 10 12 13 14 15 16 17 17 17
6 6 7 6 6 6 6 6 6 6 6 6 5 5 5 6 6 6 6 7 7 7 8 8 8 8 8 9 9 9 10 10 11 11 12 13 15 16 16 17 18 19 19
7 7 7 6 6 6 6 6 6 6 6 6 6 6 6 6 5 6 6 6 7 7 7 7 8 9 9 10 11 11 12 12 13 13 14 15 15 16 17 18 19 19 20
7 7 7 7 6 7 7 6 6 6 7 7 7 7 7 7 7 7 7 7 7 7 8 9 9 10 11 11 12 13 13 14 14 15 15 16 17 18 19 20 20 21 21
7 7 8 7 7 7 7 7 7 7 8 8 8 8 8 8 8 8 9 9 9 9 10 10 11 12 12 13 13 14 14 15 15 15 16 17 18 19 20 21 21 22 22
7 7 7 7 7 7 8 8 8 8 8 8 8 9 9 9 9 9 10 10 10 10 11 12 13 13 14 14 14 14 15 15 16 17 18 19 20 21 21 22 22 24 25
8 8 7 8 8 8 8 9 9 9 9 9 9 10 10 10 10 10 10 11 11 12 13 13 14 14 15 15 15 15 16 17 17 18 19 20 21 22 23 23 24 25 26
9 9 9 9 9 10 10 10 10 10 10 11 11 11 11 11 11 11 12 12 13 14 14 14 15 15 15 15 16 17 17 18 19 19 20 22 23 24 25 25 26 26 26
10 10 11 11 11 11 12 12 11 11 11 11 12 12 12 12 13 13 13 14 14 15 15 15 16 16 16 16 17 18 19 19 20 21 23 24 25 25 26 26 26 27 27
12 12 12 12 12 12 13 13 13 13 13 13 13 13 13 13 14 14 14 15 16 16 17 17 17 17 18 18 19 19 20 21 22 22 24 24 25 25 26 27 27 27 28
13 14 14 14 14 14 14 15 15 15 15 14 14 14 14 14 14 15 16 16 17 18 18 19 19 19 20 20 21 21 22 23 24 24 24 25 26 26 27 28 29 29 28
15 15 15 15 15 16 16 17 17 17 17 17 16 16 16 16 16 17 17 17 18 18 19 19 20 20 21 21 22 22 22 23 24 24 25 26 27 27 28 29 30 30 30
16 17 17 17 17 17 17 17 17 18 18 18 17 17 17 17 17 18 18 19 19 20 20 20 21 21 22 22 22 22 22 23 25 26 26 27 28 28 29 30 30 31 31
17 18 18 18 18 18 18 18 18 18 18 19 19 19 18 18 19 19 20 20 20 21 21 21 21 22 23 23 24 24 24 25 26 27 28 29 29 30 30 31 31 31 32
Wind_Direction
271 272 270 266 268 267 264 265 262 264 262 263 266 267 266 269 267 267 264 261 257 256 258 256 253 256 260 261 260 260 259 258 258 256 255 257 260 261 263 261 260 260 264
269 275 273 265 268 271 273 277 272 267 263 262 264 266 266 270 268 268 265 261 259 258 258 258 255 255 260 261 259 260 260 257 258 257 257 257 258 261 260 260 259 262 264
265 269 268 267 266 270 272 277 275 270 263 262 263 265 267 266 266 261 265 262 259 256 256 258 256 253 256 258 260 262 262 260 259 260 259 260 261 261 261 261 261 263 264
268 266 269 268 271 272 275 277 282 280 271 268 270 269 268 265 269 265 264 264 261 259 258 259 257 254 254 258 261 264 264 262 261 262 263 265 264 264 265 264 263 263 264
278 274 279 270 273 279 283 281 286 288 292 290 283 275 270 269 269 266 263 264 263 263 262 260 255 257 259 261 262 264 264 261 264 269 270 272 271 270 267 270 268 266 266
284 281 278 274 273 277 282 293 295 291 300 305 297 283 274 276 272 269 268 266 263 262 260 256 257 261 263 264 265 265 265 264 268 270 271 272 272 270 270 272 270 269 267
288 276 274 276 274 274 278 292 307 302 296 306 309 294 282 280 283 274 270 270 268 265 259 257 257 262 265 268 270 270 268 266 271 271 271 273 274 273 274 275 275 275 272
281 275 279 284 282 282 282 289 305 302 296 299 301 292 287 287 281 282 285 283 276 271 264 263 263 265 267 271 274 272 267 268 270 273 274 275 278 278 279 278 278 277 277
274 269 274 281 288 288 289 293 301 300 289 293 293 293 291 284 282 277 281 277 275 274 269 269 269 270 272 274 278 274 269 269 271 275 275 278 281 281 280 279 279 278 276
276 267 266 279 284 294 295 296 299 302 291 288 291 296 293 283 285 282 273 268 273 275 277 280 280 278 279 280 283 282 278 274 275 276 276 277 279 282 281 281 285 286 285
274 266 267 269 278 291 299 302 301 301 301 289 287 285 287 279 278 281 275 270 267 269 275 282 283 285 283 285 286 288 286 282 279 281 282 282 283 286 288 290 292 293 291
269 268 269 268 277 284 286 293 294 298 303 300 289 286 288 284 280 287 286 280 270 267 270 275 277 277 279 282 286 287 288 292 290 289 291 293 292 292 293 293 293 294 292
268 267 265 269 274 279 284 289 287 290 296 300 299 297 300 291 280 279 279 276 276 278 280 279 279 277 283 287 290 291 293 295 296 292 291 294 296 295 296 295 294 293 290
269 273 265 263 269 276 277 279 281 287 293 294 293 295 298 294 283 278 280 279 277 278 283 286 285 285 291 294 295 294 293 293 295 296 295 295 296 297 297 297 296 294 292
270 273 265 261 264 270 271 273 277 285 290 290 290 292 295 295 292 292 293 290 287 288 287 285 288 288 288 290 293 293 292 294 293 294 295 296 297 298 298 299 298 298 296
267 267 268 262 258 264 268 277 280 284 287 289 289 290 290 290 291 288 289 291 291 290 291 292 292 292 292 292 293 293 294 295 296 296 297 297 298 299 300 300 298 298 297
270 267 266 265 265 272 274 277 282 285 287 287 286 287 289 291 293 291 287 287 289 289 289 291 292 292 292 292 293 293 294 296 298 298 300 301 300 299 300 300 301 299 298
266 266 265 268 271 274 276 278 280 286 287 283 283 284 286 290 292 291 288 286 288 289 291 292 292 292 292 292 292 293 295 297 298 300 301 303 303 302 302 301 301 300 298
263 263 264 267 272 275 277 278 279 283 284 282 284 283 283 286 288 289 288 289 290 291 291 292 293 293 293 293 292 294 297 298 298 300 302 304 304 303 304 303 302 301 300
263 263 263 268 272 274 276 277 278 278 278 281 285 285 282 283 286 288 290 292 293 294 295 294 295 295 295 295 294 294 296 298 299 300 301 303 303 303 304 303 302 300 300
264 264 266 268 271 276 277 275 277 278 278 281 284 286 284 281 284 287 290 293 295 296 296 296 296 297 296 296 296 296 297 298 299 300 302 303 303 304 305 304 302 300 299
264 267 268 268 270 274 277 277 276 275 275 277 281 283 285 285 284 286 289 292 294 296 297 296 296 297 296 296 297 298 298 298 299 301 302 303 304 305 306 305 302 300 299
265 266 269 268 270 274 277 277 277 274 274 275 279 281 282 284 287 290 290 291 293 295 295 295 295 295 296 296 296 297 297 297 300 301 302 303 304 305 306 306 304 302 299
267 267 269 270 272 275 277 277 277 275 273 272 275 278 279 281 284 286 287 289 292 294 295 295 295 295 295 296 296 297 298 299 301 302 303 304 304 306 306 306 305 303 300
268 268 269 272 274 276 276 277 278 277 275 272 273 275 278 278 281 284 287 289 291 293 295 296 296 296 296 295 295 297 298 300 301 302 303 303 304 305 306 306 305 304 302
268 267 269 270 274 275 277 277 276 277 277 276 275 274 276 278 280 282 285 289 291 294 295 295 296 296 296 296 297 297 298 299 300 301 302 303 303 304 306 305 304 303 303
Height
5864 5864 5863 5863 5863 5863 5862 5862 5862 5862 5862 5861 5861 5860 5860 5860 5860 5860 5860 5860 5860 5860 5861 5861 5861 5861 5861 5861 5861 5861 5861 5861 5861 5861 5862 5862 5863 5863 5863 5863 5863 5864 5864
5863 5862 5862 5862 5861 5861 5861 5860 5860 5860 5860 5859 5859 5858 5859 5858 5858 5858 5858 5858 5857 5858 5858 5858 5859 5859 5859 5859 5859 5859 5859 5859 5859 5859 5859 5859 5859 5859 5859 5860 5860 5860 5860
5861 5861 5861 5860 5860 5860 5859 5859 5858 5858 5858 5857 5857 5857 5857 5856 5856 5856 5856 5856 5856 5856 5856 5856 5856 5856 5857 5857 5857 5857 5856 5856 5856 5856 5856 5856 5856 5856 5856 5856 5856 5857 5857
5860 5860 5860 5859 5859 5858 5858 5857 5857 5856 5856 5855 5855 5855 5855 5855 5854 5854 5854 5854 5854 5854 5854 5854 5854 5854 5854 5854 5854 5854 5854 5854 5854 5853 5853 5853 5853 5853 5852 5852 5852 5853 5853
5859 5859 5859 5858 5858 5857 5857 5856 5856 5855 5854 5854 5854 5853 5853 5853 5853 5853 5853 5852 5852 5852 5852 5852 5852 5852 5852 5852 5852 5852 5851 5851 5851 5850 5850 5850 5850 5850 5849 5849 5849 5849 5849
5858 5858 5857 5857 5857 5857 5856 5856 5855 5854 5853 5853 5852 5852 5852 5851 5851 5851 5851 5851 5851 5850 5850 5850 5850 5850 5850 5849 5849 5849 5849 5848 5848 5848 5848 5847 5847 5847 5846 5846 5845 5845 5845
5857 5856 5856 5856 5856 5856 5855 5855 5854 5853 5852 5852 5852 5851 5851 5850 5850 5850 5850 5849 5849 5849 5848 5848 5848 5848 5848 5847 5847 5846 5846 5846 5845 5845 5845 5845 5844 5844 5843 5842 5842 5841 5840
5855 5855 5855 5855 5855 5854 5854 5854 5853 5852 5852 5851 5851 5850 5850 5850 5849 5849 5848 5848 5847 5847 5847 5846 5846 5846 5845 5845 5844 5844 5844 5843 5843 5843 5842 5842 5841 5841 5840 5839 5838 5837 5836
5854 5854 5854 5854 5853 5853 5853 5852 5852 5851 5850 5850 5850 5849 5849 5848 5848 5848 5847 5846 5846 5846 5845 5845 5844 5844 5843 5843 5842 5841 5841 5841 5840 5840 5839 5839 5838 5837 5836 5835 5834 5833 5832
5853 5853 5853 5852 5852 5852 5852 5851 5851 5850 5849 5849 5848 5848 5848 5847 5847 5846 5846 5845 5845 5844 5844 5843 5843 5842 5842 5841 5840 5839 5838 5838 5838 5837 5837 5836 5835 5834 5833 5832 5830 5829 5828
5852 5852 5851 5851 5851 5851 5850 5850 5849 5849 5848 5848 5847 5846 5846 5846 5845 5845 5844 5844 5843 5843 5842 5842 5841 5841 5840 5839 5838 5838 5836 5836 5835 5834 5834 5833 5832 5831 5830 5828 5827 5825 5824
5851 5850 5850 5850 5850 5850 5849 5849 5848 5848 5847 5846 5845 5845 5845 5844 5843 5843 5842 5842 5841 5841 5840 5840 5839 5839 5838 5837 5836 5836 5834 5833 5832 5832 5831 5830 5829 5828 5826 5825 5823 5821 5820
5849 5849 5848 5848 5848 5848 5848 5847 5847 5847 5846 5845 5845 5844 5843 5843 5842 5841 5841 5840 5840 5839 5838 5838 5837 5837 5836 5835 5834 5833 5832 5831 5830 5829 5828 5827 5826 5824 5823 5821 5819 5818 5816
5847 5847 5846 5846 5846 5846 5846 5846 5845 5845 5845 5844 5843 5843 5842 5841 5840 5839 5839 5838 5837 5837 5836 5836 5835 5834 5834 5833 5832 5831 5829 5828 5827 5826 5825 5823 5822 5820 5819 5817 5815 5813 5812
5845 5845 5844 5844 5844 5844 5844 5844 5844 5843 5843 5842 5842 5841 5840 5839 5838 5837 5837 5836 5836 5835 5834 5834 5833 5832 5831 5830 5829 5828 5826 5825 5824 5823 5821 5820 5818 5816 5814 5813 5810 5808 5806
5843 5843 5843 5842 5842 5842 5842 5842 5842 5841 5841 5840 5840 5839 5838 5837 5836 5835 5835 5834 5833 5833 5832 5831 5830 5829 5828 5827 5826 5825 5823 5822 5820 5819 5817 5816 5814 5812 5810 5808 5806 5803 5801
5840 5840 5840 5840 5840 5840 5840 5840 5840 5839 5838 5838 5837 5836 5836 5835 5834 5833 5832 5832 5831 5830 5829 5828 5827 5826 5825 5823 5822 5821 5819 5818 5816 5815 5813 5811 5809 5807 5805 5802 5800 5798 5795
5838 5838 5838 5838 5838 5838 5837 5837 5837 5837 5836 5835 5834 5834 5833 5832 5831 5830 5830 5829 5828 5827 5826 5825 5824 5823 5821 5820 5818 5817 5816 5814 5812 5811 5809 5807 5804 5802 5799 5797 5794 5791 5789
5836 5835 5835 5835 5835 5835 5835 5835 5834 5834 5833 5832 5831 5831 5830 5830 5829 5828 5827 5826 5825 5824 5823 5822 5820 5819 5817 5816 5814 5813 5811 5810 5808 5806 5804 5801 5799 5796 5793 5791 5788 5785 5781
5833 5833 5833 5833 5833 5832 5832 5832 5831 5831 5830 5829 5828 5828 5827 5826 5826 5825 5824 5823 5821 5820 5819 5817 5816 5815 5813 5811 5810 5808 5807 5805 5803 5801 5798 5796 5793 5790 5787 5784 5781 5777 5774
5829 5829 5829 5829 5829 5829 5828 5828 5828 5827 5827 5826 5825 5824 5823 5823 5822 5821 5820 5819 5818 5816 5815 5813 5812 5810 5809 5807 5805 5803 5801 5799 5797 5795 5792 5789 5786 5783 5780 5777 5773 5770 5767
5826 5826 5826 5826 5825 5825 5825 5824 5824 5823 5823 5822 5821 5821 5819 5819 5818 5817 5816 5815 5813 5812 5810 5809 5807 5805 5804 5802 5800 5798 5796 5794 5792 5789 5786 5783 5780 5776 5773 5769 5766 5762 5759
5821 5822 5822 5821 5821 5821 5820 5820 5819 5819 5818 5818 5817 5816 5815 5814 5813 5812 5811 5810 5809 5807 5806 5804 5802 5800 5799 5797 5795 5792 5790 5787 5785 5782 5779 5776 5773 5769 5766 5762 5758 5754 5751
5817 5817 5817 5817 5816 5816 5816 5815 5815 5814 5814 5813 5812 5811 5810 5810 5809 5808 5806 5805 5804 5802 5800 5798 5797 5795 5793 5791 5789 5786 5784 5781 5778 5775 5772 5769 5765 5762 5758 5754 5750 5746 5743
5812 5812 5812 5812 5811 5811 5810 5810 5809 5809 5808 5807 5807 5806 5805 5804 5803 5802 5801 5800 5798 5797 5795 5793 5791 5789 5786 5784 5782 5780 5777 5774 5772 5768 5765 5762 5758 5755 5751 5746 5742 5738 5734
5806 5806 5806 5806 5806 5805 5805 5804 5804 5803 5803 5802 5801 5800 5800 5799 5798 5796 5795 5794 5792 5791 5789 5787 5785 5782 5780 5778 5775 5773 5770 5767 5764 5761 5757 5754 5751 5747 5743 5738 5734 5730 5726